www.pogodaiklimat.ru

Погода и климат >> Архив погоды >> Россия >> Краснодарский край >> Лазаревское


ПОГОДА в Лазаревском

  • Прогноз погоды в Лазаревском
  • Монитор погоды в Лазаревском

АРХИВ ПОГОДЫ в Лазаревском

Время (UTC), дата Ветер
(напр.,м/с)
 
Видим.   Явления Облачность Т
(С)
Тd
(С)
f
(%)
Тe
(С)
Тes
(С)
Комфортность P
(гПа)
Po
(гПа)
Тmin
(С)
Tmax
(С)
R
(мм)
R24
(мм)
S
(см)
09 19.03 З 1 н/о н/о +11.1 +5.6 69 +11 +11 1024.1 1022.8
12 19.03 СЗ 1 н/о н/о +11.5 +5.8 68 +12 +12 1022.7 1021.4
15 19.03 СЗ 1 н/о н/о +9.7 +5.2 74 +9 +9 1021.5 1020.2 +11.8
18 19.03 ЮВ 2 н/о н/о +6.9 +3.7 80 +5 +5 1021.7 1020.4
21 19.03 Ю 2 н/о н/о +7.4 +3.7 77 +5 +5 1021.2 1019.9
00 20.03 Ю 3 н/о н/о +6.2 +2.7 78 +3 +3 1020.5 1019.2
03 20.03 Ю 4 н/о н/о +6.5 +1.9 72 +3 +3 1019.8 1018.5 +6.0
06 20.03 Ю 2 н/о н/о +10.0 +1.0 54 +9 +9 1019.9 1018.6
09 20.03 З 1 н/о н/о +11.8 +5.7 66 +12 +12 1020.1 1018.8
12 20.03 СЗ 1 н/о н/о +11.9 +5.9 67 +12 +12 1019.8 1018.5
15 20.03 штиль 0 н/о н/о +9.8 +6.4 79 +9 +9 1020.3 1019.0 +12.6
18 20.03 ЮВ 1 н/о н/о +8.2 +6.0 86 +7 +7 1021.6 1020.3
21 20.03 ЮЗ 1 н/о н/о +8.7 +5.7 81 +8 +8 1022.4 1021.1
00 21.03 ЮЗ 1 н/о н/о +8.1 +5.3 82 +7 +7 1023.2 1021.9
03 21.03 ЮЗ 3 н/о н/о +8.5 +4.7 77 +6 +6 1023.9 1022.6 +8.0
06 21.03 З 2 н/о н/о +8.6 +4.8 77 +7 +7 1025.4 1024.1 +7.6
09 21.03 З 2 н/о н/о +10.1 +4.5 68 +9 +9 1026.0 1024.7
12 21.03 З 2 н/о н/о +10.8 +4.3 64 +10 +10 1025.8 1024.5
15 21.03 З 2 н/о н/о +9.7 +4.7 71 +8 +8 1025.7 1024.4 +11.0
18 21.03 ЮЗ 1 н/о н/о +9.4 +4.6 72 +9 +9 1026.5 1025.1
21 21.03 ЮЗ 1 н/о н/о +8.8 +4.4 74 +8 +8 1026.1 1024.8
00 22.03 Ю 1 н/о н/о +7.3 +5.5 88 +6 +6 1026.0 1024.7
03 22.03 В 2 н/о н/о +7.2 +5.2 87 +5 +5 1025.3 1024.0 +7.1 5
06 22.03 ЮВ 2 н/о н/о +7.7 +4.0 77 +6 +6 1026.0 1024.7 +6.9
09 22.03 З 2 н/о н/о +11.0 +5.4 68 +10 +10 1025.9 1024.6
12 22.03 З 1 н/о н/о +10.6 +4.9 68 +10 +10 1025.1 1023.8
15 22.03 З 1 н/о н/о +9.3 +4.4 71 +9 +9 1024.3 1023.0 +11.5 0.5
18 22.03 З 2 н/о н/о +9.3 +4.6 72 +8 +8 1024.1 1022.8
21 22.03 З 2 н/о н/о +9.1 +4.4 72 +8 +8 1022.6 1021.3
00 23.03 З 3-10
{10}
н/о н/о +7.9 +2.7 70 +5 +5 1021.0 1019.7
03 23.03 З 3
{11}
н/о н/о +6.3 +2.7 78 +3 +3 1018.3 1017.0 +6.4 1
06 23.03 ЮЗ 3
{13}
н/о н/о +5.5 +3.1 85 +2 +2 1016.8 1015.5 +6.0
09 23.03 ЮЗ 1 н/о н/о +0.7 -0.3 93 -1 -1 1016.7 1015.4
12 23.03 Ю 2 н/о н/о +1.4 +0.4 93 -2 -2 1015.4 1014.1
15 23.03 Ю 3 н/о н/о +2.9 +0.4 84 -1 -1 1016.0 1014.6 +6.5 56
18 23.03 ЮВ 4 н/о н/о +2.2 -0.2 84 -3 -3 1016.7 1015.4
21 23.03 Ю 3 н/о н/о +1.5 -1.1 83 -3 -3 1017.9 1016.5
00 24.03 Ю 4 н/о н/о +1.0 -2.5 77 -4 -4 1017.7 1016.4
03 24.03 Ю 4 н/о н/о +0.8 -2.6 78 -4 -4 1018.3 1016.9 +0.7 0.3
06 24.03 Ю 3 н/о н/о +3.7 -1.2 70 0 0 1018.8 1017.5 +0.7
09 24.03 СЗ 1 н/о н/о +3.8 +1.2 83 +2 +2 1019.3 1018.0
12 24.03 З 1 н/о н/о +8.0 +0.7 60 +8 +8 1018.5 1017.2
15 24.03 СВ 1 н/о н/о +6.2 -1.6 57 +6 +6 1019.3 1018.0 +8.2 1
18 24.03 Ю 2 н/о н/о +3.8 +0.4 78 +1 +1 1020.2 1018.9
21 24.03 Ю 2 н/о н/о +2.7 -0.6 79 -0 -0 1020.4 1019.1
00 25.03 Ю 4 н/о н/о +2.2 -1.4 77 -3 -3 1019.7 1018.4
03 25.03 Ю 4 н/о н/о +1.6 -2.4 75 -3 -3 1018.6 1017.2 +1.6
06 25.03 Ю 3 н/о н/о +4.7 -2.5 60 +2 +2 1017.8 1016.5 +1.5

 

Местоположение метеостанции Лазаревское (Краснодарский край, Россия): широта 43.90 долгота 39.33 высота над уровнем моря 11 м.

В архиве по умолчанию представлена погода в Лазаревском за последнюю неделю. Архивные данные за месяц целиком и за предыдущие месяцы, начиная с января 2011 года, Вы можете получить, выбрав интересующий диапазон дат из раскрывающегося списка и нажав кнопку "Ввод!".


*Определитесь, кто Вы:
робот инопланетянин человек

Внимание! Время в таблицах - всемирное. Для получения местного времени необходимо прибавить поправку, которая равна 3 ч.

Смотрите также архив погоды в соседних городах и на ближайших метеорологических станциях:

Погода в Кичмае (Краснодарский край, Россия) (16 км)
Погода в Магри (Краснодарский край, Россия) (19 км)
Погода в Солох Ауле (Краснодарский край, Россия) (27 км)
Погода в Туапсе (Краснодарский край, Россия) (30 км)
Погода в Горном (Краснодарский край, Россия) (43 км)
Погода в Сочи (Краснодарский край, Россия) (50 км)
Погода в Гузерипле (Адыгея, Россия) (65 км)
Погода в Кепше (Краснодарский край, Россия) (66 км)
Погода в Джубге (Краснодарский край, Россия) (68 км)
Погода в Сочи аэропорт (Адлере) (Краснодарский край, Россия) (70 км)

Пояснения к столбцам:

Ветер - указаны скорость ветра в м/с - средняя за 10 мин, порывы в срок и между сроками (в фигурных скобках) и направление, откуда дует ветер: С - северный, СВ - северо-восточный, В - восточный, ЮВ - юго-восточный, Ю - южный, ЮЗ - юго-западный, З - западный, СЗ - северо-западный.
Видимость - горизонтальная дальность видимости в метрах или километрах. При видимости от 1 до 10 км при отсутствии осадков обычно наблюдается дымка, при ухудшении видимости до 1 км и менее - туман. В сухую погоду видимость может ухудшаться дымом, пылью или мглою.
Явления - указаны атмосферные явления, наблюдавшиеся в срок или в последний час перед сроком; фигурными скобками обозначены явления, наблюдавшиеся между сроками (за 1-3 часа до срока); квадратными скобками обозначены град или гололедные отложения с указанием их диаметра в мм.
Облачность - указаны через наклонную черту общая и нижняя облачность в баллах и высота нижней границы облаков в метрах; квадратными скобками обозначены формы облаков: Ci - перистые, Cs - перисто-слоистые, Cc - перисто-кучевые, Ac - высококучевые, As - высокослоистые, Sc - слоисто-кучевые, Ns - слоисто-дождевые, Cu - кучевые, Cb - кучево-дождевые. Подробнее классификацию облаков см. в Атласе облаков (PDF).
T - Температура воздуха - температура, измеренная на высоте 2 м над землей.
Td - Температура точки росы - температура, при понижении до которой содержащийся в воздухе водяной пар достигнет насыщения.
f - Относительная влажность воздуха - влажноcть воздуха, измеренная на высоте 2 м над землей.
Te - Эффективная температура - температура, которую ощущает одетый по сезону человек в тени. Характеристика душности погоды. При расчете учитывается влияние влажности воздуха и скорости ветра на теплоощущения человека.
Tes - Эффективная температура на солнце - температура, которую ощущает человек, с поправкой на солнечный нагрев. Характеристика знойности погоды. Зависит от высоты солнца над горизонтом, облачности и скорости ветра. Ночью, в пасмурную погоду, а также при ветре 12 м/с и более поправка равна нулю.
P - Атмосферное давление - приведенное к уровню моря атмосферное давление.
Po - Атмосферное давление - измеренное на уровне метеостанции атмосферное давление.
Tmin - Минимальная температура - минимум температуры воздуха на высоте 2 м над землей.
Tmax - Максимальная температура - максимум температуры воздуха на высоте 2 м над землей.
R - Количество осадков - Количество выпавших осадков за период времени, мм. При наведении курсора мыши на число - период времени, за который выпало указанное количество осадков.
R24 - Количество осадков - Количество выпавших осадков за 24 часа, мм.
S - Снежный покров - Высота снежного покрова, см. При наведении курсора мыши на число - состояние снежного покрова и степень покрытия местности в баллах.